GW6920 Weather Reports


time (UTC)temp
C
wind
direction
speed
KPH
gust
KPH
rain 1hr
cm
rain 24hr
cm
rain mn
cm
humidity
%
barometer
mb
20260504160256 21 264 3.2 6.4 0.00 0.00 0.00 33 1013.4
20260504150722 20 275 3.2 6.4 0.00 0.00 0.00 32 1013.7
20260504150219 20 219 1.6 4.8 0.00 0.00 0.00 31 1013.7
20260504141148 17 215 1.6 3.2 0.00 0.00 0.00 38 1013.9
20260504140645 17 292 1.6 4.8 0.00 0.00 0.00 39 1013.9
20260504140140 17 239 0.0 3.2 0.00 0.00 0.00 37 1014.0
20260504130609 13 290 1.6 3.2 0.00 0.00 0.00 47 1014.6
20260504130105 13 275 0.0 4.8 0.00 0.00 0.00 46 1014.8
20260504110456 9 261 0.0 3.2 0.00 0.00 0.00 63 1015.1
20260504100418 10 255 0.0 0.0 0.00 0.00 0.00 56 1014.9
20260504081811 10 264 0.0 0.0 0.00 0.00 0.00 62 1015.4
20260504081308 10 264 0.0 0.0 0.00 0.00 0.00 63 1015.2
20260504080804 10 264 0.0 0.0 0.00 0.00 0.00 62 1015.3
20260504080301 10 264 0.0 0.0 0.00 0.00 0.00 61 1015.4
20260504070229 8 254 0.0 0.0 0.00 0.00 0.00 69 1015.0
20260504060149 8 254 0.0 0.0 0.00 0.00 0.00 67 1015.8
20260504050617 7 254 0.0 0.0 0.00 0.00 0.00 66 1015.7
20260504050114 7 254 0.0 0.0 0.00 0.00 0.00 65 1015.5
20260504045611 7 254 0.0 1.6 0.00 0.00 0.00 66 1015.6
20260504045106 7 254 0.0 0.0 0.00 0.00 0.00 66 1015.6
20260504044604 7 254 0.0 0.0 0.00 0.00 0.00 66 1015.6
20260504044100 7 254 0.0 0.0 0.00 0.00 0.00 66 1015.4
20260504043558 7 254 0.0 0.0 0.00 0.00 0.00 67 1015.5
20260504043055 7 254 0.0 0.0 0.00 0.00 0.00 68 1015.5
20260504042552 6 254 0.0 0.0 0.00 0.00 0.00 68 1015.5
20260504042049 6 254 0.0 0.0 0.00 0.00 0.00 68 1015.5
20260504041545 6 254 0.0 0.0 0.00 0.00 0.00 69 1015.5
20260504041041 6 254 0.0 0.0 0.00 0.00 0.00 68 1015.4
20260504040539 6 254 0.0 0.0 0.00 0.00 0.00 67 1015.4
20260504040035 6 254 0.0 0.0 0.00 0.00 0.00 67 1015.5
20260504035532 6 254 0.0 0.0 0.00 0.00 0.00 66 1015.6
20260504035028 6 254 0.0 0.0 0.00 0.00 0.00 66 1015.7
20260504034526 6 254 0.0 0.0 0.00 0.00 0.00 66 1015.5
20260504034023 6 254 0.0 0.0 0.00 0.00 0.00 66 1015.6
20260504033521 6 254 0.0 0.0 0.00 0.00 0.00 65 1015.6
20260504033018 6 254 0.0 0.0 0.00 0.00 0.00 65 1015.4
20260504032515 7 254 0.0 0.0 0.00 0.00 0.00 65 1015.5
20260504032012 7 254 0.0 0.0 0.00 0.00 0.00 64 1015.4
20260504031509 7 254 0.0 0.0 0.00 0.00 0.00 64 1015.3
20260504031005 7 254 0.0 0.0 0.00 0.00 0.00 63 1015.4
20260504030502 7 254 0.0 0.0 0.00 0.00 0.00 62 1015.2
20260504025958 7 254 0.0 0.0 0.00 0.00 0.00 61 1015.2
20260504025455 7 254 0.0 0.0 0.00 0.00 0.00 62 1015.2
20260504024952 7 254 0.0 0.0 0.00 0.00 0.00 62 1015.3
20260504024449 7 254 0.0 0.0 0.00 0.00 0.00 62 1015.2
20260504023946 7 254 0.0 0.0 0.00 0.00 0.00 61 1015.2
20260504023443 7 254 0.0 0.0 0.00 0.00 0.00 60 1015.1
20260504022938 7 254 0.0 0.0 0.00 0.00 0.00 59 1015.1
20260504022435 7 254 0.0 0.0 0.00 0.00 0.00 59 1015.2
20260504021931 7 254 0.0 0.0 0.00 0.00 0.00 59 1015.1
20260504021429 8 254 0.0 0.0 0.00 0.00 0.00 59 1015.1
20260504020926 8 254 0.0 0.0 0.00 0.00 0.00 57 1015.0
20260504020422 8 254 0.0 0.0 0.00 0.00 0.00 56 1015.1
20260504015919 8 254 0.0 0.0 0.00 0.00 0.00 56 1015.0
20260504015415 8 254 0.0 0.0 0.00 0.00 0.00 54 1014.8
20260504014911 8 254 0.0 1.6 0.00 0.00 0.00 53 1015.0
20260504014407 8 254 1.6 1.6 0.00 0.00 0.00 54 1014.9
20260504013904 8 254 0.0 0.0 0.00 0.00 0.00 55 1015.1
20260504013403 8 254 0.0 0.0 0.00 0.00 0.00 54 1014.7
20260504012859 8 254 0.0 0.0 0.00 0.00 0.00 53 1014.7
20260504012357 9 254 0.0 0.0 0.00 0.00 0.00 52 1014.8
20260504011854 10 254 0.0 0.0 0.00 0.00 0.00 50 1014.6
20260504011350 10 254 0.0 0.0 0.00 0.00 0.00 49 1014.8
20260504010846 10 254 0.0 0.0 0.00 0.00 0.00 48 1014.5
20260504010342 10 254 0.0 0.0 0.00 0.00 0.00 48 1014.6
20260504005839 10 254 0.0 0.0 0.00 0.00 0.00 47 1014.6
20260504005336 10 254 0.0 0.0 0.00 0.00 0.00 46 1014.7
20260504004833 10 254 0.0 0.0 0.00 0.00 0.00 45 1014.5
20260504004331 11 254 0.0 0.0 0.00 0.00 0.00 44 1014.5
20260504003827 11 254 0.0 0.0 0.00 0.00 0.00 43 1014.4
20260504003324 11 254 0.0 0.0 0.00 0.00 0.00 42 1014.5
20260504002821 11 254 0.0 0.0 0.00 0.00 0.00 41 1014.5
20260504002317 11 254 0.0 0.0 0.00 0.00 0.00 41 1014.4
20260504001815 12 254 0.0 0.0 0.00 0.00 0.00 39 1014.3
20260504001312 12 254 0.0 0.0 0.00 0.00 0.00 38 1014.4
20260504000809 13 254 0.0 0.0 0.00 0.00 0.00 36 1014.2
20260504000306 13 254 0.0 0.0 0.00 0.00 0.00 36 1014.2
20260503235804 13 254 0.0 0.0 0.00 0.00 0.00 34 1014.2
20260503235301 15 254 0.0 0.0 0.00 0.00 0.00 32 1014.2
20260503234759 15 254 0.0 0.0 0.00 0.00 0.00 33 1014.2
20260503234256 15 254 0.0 0.0 0.00 0.00 0.00 28 1014.0
20260503233754 16 266 0.0 1.6 0.00 0.00 0.00 27 1013.8
20260503233249 16 267 0.0 1.6 0.00 0.00 0.00 26 1013.9
20260503232746 16 345 0.0 0.0 0.00 0.00 0.00 25 1014.0
20260503232244 16 286 1.6 3.2 0.00 0.00 0.00 25 1014.0
20260503231742 16 233 0.0 3.2 0.00 0.00 0.00 25 1014.0
20260503231238 16 292 1.6 3.2 0.00 0.00 0.00 25 1013.7
20260503230734 16 257 1.6 1.6 0.00 0.00 0.00 26 1013.7
20260503230232 16 306 0.0 3.2 0.00 0.00 0.00 25 1013.9
20260503225729 16 223 3.2 4.8 0.00 0.00 0.00 25 1013.8
20260503225229 17 250 1.6 4.8 0.00 0.00 0.00 24 1013.7
20260503224726 17 305 1.6 3.2 0.00 0.00 0.00 24 1013.9
20260503224224 17 249 0.0 4.8 0.00 0.00 0.00 25 1014.0
20260503223721 17 286 1.6 3.2 0.00 0.00 0.00 24 1013.9
20260503223219 17 275 6.4 9.7 0.00 0.00 0.00 23 1013.9
20260503222715 17 291 3.2 11.3 0.00 0.00 0.00 23 1013.8
20260503222213 17 316 1.6 9.7 0.00 0.00 0.00 24 1013.9
20260503221711 17 61 3.2 3.2 0.00 0.00 0.00 23 1014.0
20260503221209 17 284 8.0 12.9 0.00 0.00 0.00 23 1013.9
20260503220705 18 225 6.4 11.3 0.00 0.00 0.00 23 1014.0
20260503220202 18 27 0.0 3.2 0.00 0.00 0.00 23 1014.0
20260503215659 18 280 3.2 4.8 0.00 0.00 0.00 24 1014.1
20260503215155 18 147 0.0 4.8 0.00 0.00 0.00 22 1013.8
20260503214654 18 11 0.0 4.8 0.00 0.00 0.00 24 1013.9
20260503214149 18 271 0.0 6.4 0.00 0.00 0.00 23 1014.2
20260503213649 18 165 1.6 9.7 0.00 0.00 0.00 23 1013.9
20260503213145 18 250 0.0 3.2 0.00 0.00 0.00 23 1014.0
20260503212643 18 305 3.2 6.4 0.00 0.00 0.00 24 1014.3
20260503212140 18 207 1.6 9.7 0.00 0.00 0.00 23 1014.1
20260503211638 18 283 4.8 9.7 0.00 0.00 0.00 24 1013.9
20260503211133 18 208 3.2 4.8 0.00 0.00 0.00 22 1014.0
20260503210629 18 4 1.6 4.8 0.00 0.00 0.00 23 1014.0
20260503210126 18 246 1.6 4.8 0.00 0.00 0.00 24 1014.0
20260503205622 18 341 4.8 6.4 0.00 0.00 0.00 23 1014.2
20260503205118 18 313 4.8 6.4 0.00 0.00 0.00 23 1014.4
20260503204615 18 285 4.8 6.4 0.00 0.00 0.00 24 1014.3
20260503204113 18 299 3.2 4.8 0.00 0.00 0.00 26 1014.2
20260503203610 17 109 0.0 9.7 0.00 0.00 0.00 24 1014.2
20260503203107 17 300 4.8 6.4 0.00 0.00 0.00 25 1014.1
20260503202604 17 292 8.0 12.9 0.00 0.00 0.00 26 1014.1
20260503202102 17 262 6.4 12.9 0.00 0.00 0.00 24 1014.2
20260503201600 17 118 3.2 12.9 0.00 0.00 0.00 25 1014.4
20260503201057 18 176 3.2 9.7 0.00 0.00 0.00 25 1014.8
20260503200553 17 4 1.6 4.8 0.00 0.00 0.00 24 1014.5
20260503200050 17 320 3.2 9.7 0.00 0.00 0.00 24 1014.7
20260503195547 17 277 9.7 16.1 0.00 0.00 0.00 24 1014.7
20260503195044 17 343 3.2 12.9 0.00 0.00 0.00 25 1014.8
20260503194541 17 247 3.2 6.4 0.00 0.00 0.00 25 1014.8
20260503194041 17 344 3.2 12.9 0.00 0.00 0.00 26 1014.7
20260503193538 16 213 3.2 6.4 0.00 0.00 0.00 27 1015.0
20260503193033 17 351 4.8 12.9 0.00 0.00 0.00 26 1015.1
20260503192529 17 56 1.6 11.3 0.00 0.00 0.00 26 1015.2
20260503192026 17 345 6.4 12.9 0.00 0.00 0.00 27 1015.2
20260503191522 17 128 4.8 9.7 0.00 0.00 0.00 26 1015.2
20260503191019 17 310 3.2 4.8 0.00 0.00 0.00 27 1015.4
20260503190516 17 285 6.4 9.7 0.00 0.00 0.00 27 1015.3
20260503190013 16 341 3.2 4.8 0.00 0.00 0.00 29 1015.4
20260503185509 16 257 1.6 12.9 0.00 0.00 0.00 29 1015.6
20260503185009 16 244 1.6 12.9 0.00 0.00 0.00 27 1015.6
20260503184506 16 231 3.2 20.9 0.00 0.00 0.00 29 1015.8
20260503184002 15 270 4.8 9.7 0.00 0.00 0.00 29 1016.0
20260503183459 16 264 4.8 4.8 0.00 0.00 0.00 27 1016.0
20260503182955 16 38 1.6 6.4 0.00 0.00 0.00 28 1016.0
20260503182455 15 228 1.6 4.8 0.00 0.00 0.00 28 1016.0
20260503181952 16 236 4.8 6.4 0.00 0.00 0.00 28 1015.9
20260503181449 16 122 1.6 4.8 0.00 0.00 0.00 28 1015.8
20260503180945 16 93 3.2 12.9 0.00 0.00 0.00 28 1015.8
20260503180443 16 238 1.6 9.7 0.00 0.00 0.00 28 1016.2
20260503175939 16 298 3.2 6.4 0.00 0.00 0.00 30 1015.8
20260503175438 16 349 3.2 9.7 0.00 0.00 0.00 29 1016.0
20260503174938 15 299 1.6 4.8 0.00 0.00 0.00 31 1016.1
20260503174437 15 257 6.4 17.7 0.00 0.00 0.00 30 1016.1
20260503173932 15 298 4.8 16.1 0.00 0.00 0.00 28 1015.9
20260503173428 15 291 3.2 14.5 0.00 0.00 0.00 29 1016.3
20260503172925 15 280 6.4 11.3 0.00 0.00 0.00 27 1016.1
20260503172422 15 339 6.4 9.7 0.00 0.00 0.00 30 1016.3
20260503171918 15 146 3.2 4.8 0.00 0.00 0.00 29 1016.4
20260503171415 15 81 3.2 6.4 0.00 0.00 0.00 28 1016.4
20260503170913 15 250 4.8 9.7 0.00 0.00 0.00 30 1016.4
20260503170409 15 274 4.8 12.9 0.00 0.00 0.00 30 1016.3